| time (UTC) | temp F | wind direction | speed knots | gust knots | rain 1hr in | rain 24hr in | rain mn in | humidity % | barometer mb |
| 20260831110024 | 57 | 17 | 0.0 | 4.3 | 0.00 | 0.00 | 0.00 | 84 | 1015.0 |
| 20260831105513 | 57 | 31 | 0.0 | 4.3 | 0.00 | 0.00 | 0.00 | 84 | 1015.0 |
| 20260831105013 | 57 | 352 | 0.0 | 1.7 | 0.00 | 0.00 | 0.00 | 84 | 1015.1 |
| 20260831104537 | 57 | 345 | 0.0 | 2.6 | 0.00 | 0.00 | 0.00 | 83 | 1015.1 |
| 20260831104014 | 57 | 19 | 0.9 | 2.6 | 0.00 | 0.00 | 0.00 | 83 | 1015.1 |
| 20260831103513 | 57 | 15 | 0.0 | 1.7 | 0.00 | 0.00 | 0.00 | 83 | 1015.1 |
| 20260831103026 | 57 | 49 | 0.9 | 1.7 | 0.00 | 0.00 | 0.00 | 82 | 1015.1 |
| 20260831102506 | 57 | 54 | 0.9 | 1.7 | 0.00 | 0.00 | 0.00 | 82 | 1015.1 |
| 20260831102011 | 57 | 49 | 0.0 | 2.6 | 0.00 | 0.00 | 0.00 | 81 | 1015.2 |
| 20260831101522 | 57 | 57 | 0.9 | 2.6 | 0.00 | 0.00 | 0.00 | 81 | 1015.3 |
| 20260831101010 | 57 | 19 | 0.0 | 1.7 | 0.00 | 0.00 | 0.00 | 81 | 1015.3 |
| 20260831100513 | 57 | 18 | 0.9 | 1.7 | 0.00 | 0.00 | 0.00 | 80 | 1015.3 |
| 20260831100026 | 57 | 32 | 0.9 | 1.7 | 0.00 | 0.00 | 0.00 | 80 | 1015.4 |
| 20260831095514 | 57 | 44 | 0.0 | 3.5 | 0.00 | 0.00 | 0.00 | 79 | 1015.3 |
| 20260831095014 | 58 | 30 | 0.9 | 3.5 | 0.00 | 0.00 | 0.00 | 79 | 1015.4 |
| 20260831094530 | 58 | 11 | 0.0 | 7.0 | 0.00 | 0.00 | 0.00 | 79 | 1015.4 |
| 20260831094017 | 58 | 22 | 2.6 | 7.0 | 0.00 | 0.00 | 0.00 | 78 | 1015.5 |
| 20260831093516 | 58 | 5 | 0.9 | 5.2 | 0.00 | 0.00 | 0.00 | 78 | 1015.7 |
| 20260831093030 | 58 | 16 | 0.9 | 3.5 | 0.00 | 0.00 | 0.00 | 78 | 1015.8 |
| 20260831092514 | 58 | 21 | 0.9 | 3.5 | 0.00 | 0.00 | 0.00 | 78 | 1015.8 |
| 20260831092015 | 58 | 48 | 0.9 | 2.6 | 0.00 | 0.00 | 0.00 | 78 | 1015.9 |
| 20260831091529 | 58 | 36 | 0.0 | 1.7 | 0.00 | 0.00 | 0.00 | 78 | 1015.9 |
| 20260831091009 | 58 | 5 | 0.0 | 1.7 | 0.00 | 0.00 | 0.00 | 78 | 1016.0 |
| 20260831090510 | 58 | 5 | 0.0 | 1.7 | 0.00 | 0.00 | 0.00 | 78 | 1015.9 |
| 20260831090021 | 58 | 352 | 0.9 | 3.5 | 0.00 | 0.00 | 0.00 | 77 | 1015.9 |
| 20260831085514 | 58 | 67 | 0.9 | 3.5 | 0.00 | 0.00 | 0.00 | 78 | 1015.9 |
| 20260831085016 | 58 | 44 | 0.9 | 2.6 | 0.00 | 0.00 | 0.00 | 77 | 1016.0 |
| 20260831084523 | 58 | 65 | 0.9 | 3.5 | 0.00 | 0.00 | 0.00 | 78 | 1016.0 |
| 20260831084015 | 58 | 11 | 1.7 | 3.5 | 0.00 | 0.00 | 0.00 | 78 | 1016.0 |
| 20260831083514 | 58 | 350 | 1.7 | 3.5 | 0.00 | 0.00 | 0.00 | 78 | 1016.0 |
| 20260831083030 | 58 | 5 | 0.0 | 2.6 | 0.00 | 0.00 | 0.00 | 78 | 1016.0 |
| 20260831082504 | 58 | 29 | 0.9 | 2.6 | 0.00 | 0.00 | 0.00 | 78 | 1016.1 |
| 20260831082006 | 58 | 56 | 0.0 | 2.6 | 0.00 | 0.00 | 0.00 | 77 | 1016.2 |
| 20260831081515 | 58 | 17 | 0.0 | 2.6 | 0.00 | 0.00 | 0.00 | 78 | 1016.2 |
| 20260831081006 | 58 | 32 | 0.0 | 2.6 | 0.00 | 0.00 | 0.00 | 77 | 1016.1 |
| 20260831080509 | 58 | 360 | 0.0 | 1.7 | 0.00 | 0.00 | 0.00 | 77 | 1016.2 |
| 20260831080015 | 58 | 360 | 0.0 | 1.7 | 0.00 | 0.00 | 0.00 | 77 | 1016.3 |
| 20260831075510 | 58 | 9 | 0.0 | 0.0 | 0.00 | 0.00 | 0.00 | 77 | 1016.3 |
| 20260831075010 | 58 | 348 | 0.0 | 1.7 | 0.00 | 0.00 | 0.00 | 77 | 1016.4 |
| 20260831074521 | 58 | 348 | 0.0 | 1.7 | 0.00 | 0.00 | 0.00 | 77 | 1016.4 |
| 20260831074005 | 58 | 346 | 0.9 | 1.7 | 0.00 | 0.00 | 0.00 | 76 | 1016.4 |
| 20260831073504 | 59 | 346 | 0.0 | 1.7 | 0.00 | 0.00 | 0.00 | 76 | 1016.5 |
| 20260831073005 | 59 | 336 | 0.0 | 1.7 | 0.00 | 0.00 | 0.00 | 76 | 1016.5 |
| 20260831072503 | 59 | 9 | 0.0 | 0.0 | 0.00 | 0.00 | 0.00 | 76 | 1016.6 |
| 20260831072004 | 59 | 20 | 0.0 | 0.0 | 0.00 | 0.00 | 0.00 | 76 | 1016.6 |
| 20260831071507 | 59 | 20 | 0.0 | 0.0 | 0.00 | 0.00 | 0.00 | 76 | 1016.5 |
| 20260831071006 | 59 | 20 | 0.0 | 1.7 | 0.00 | 0.00 | 0.00 | 75 | 1016.6 |
| 20260831070506 | 59 | 352 | 0.0 | 1.7 | 0.00 | 0.00 | 0.00 | 75 | 1016.6 |
| 20260831070022 | 59 | 5 | 0.0 | 0.9 | 0.00 | 0.00 | 0.00 | 75 | 1016.7 |
| 20260831065511 | 59 | 5 | 0.0 | 1.7 | 0.00 | 0.00 | 0.00 | 75 | 1016.8 |
| 20260831065010 | 59 | 9 | 0.0 | 1.7 | 0.00 | 0.00 | 0.00 | 75 | 1016.8 |
| 20260831064518 | 59 | 5 | 0.0 | 1.7 | 0.00 | 0.00 | 0.00 | 75 | 1016.8 |
| 20260831064017 | 59 | 352 | 0.0 | 1.7 | 0.00 | 0.00 | 0.00 | 74 | 1016.8 |
| 20260831063516 | 59 | 352 | 0.0 | 1.7 | 0.00 | 0.00 | 0.00 | 74 | 1016.9 |
| 20260831063027 | 60 | 352 | 0.0 | 1.7 | 0.00 | 0.00 | 0.00 | 73 | 1017.0 |
| 20260831062517 | 60 | 352 | 0.0 | 1.7 | 0.00 | 0.00 | 0.00 | 73 | 1017.1 |
| 20260831062004 | 60 | 352 | 0.0 | 1.7 | 0.00 | 0.00 | 0.00 | 72 | 1017.1 |
| 20260831061508 | 60 | 36 | 0.0 | 1.7 | 0.00 | 0.00 | 0.00 | 72 | 1017.2 |
| 20260831061007 | 60 | 17 | 0.0 | 1.7 | 0.00 | 0.00 | 0.00 | 71 | 1017.2 |
| 20260831060510 | 61 | 42 | 0.0 | 1.7 | 0.00 | 0.00 | 0.00 | 71 | 1017.1 |
| 20260831060015 | 61 | 42 | 0.0 | 1.7 | 0.00 | 0.00 | 0.00 | 70 | 1017.1 |
| 20260831055506 | 61 | 59 | 0.0 | 1.7 | 0.00 | 0.00 | 0.00 | 70 | 1017.1 |
| 20260831055013 | 61 | 51 | 0.0 | 1.7 | 0.00 | 0.00 | 0.00 | 70 | 1017.2 |
| 20260831054517 | 61 | 42 | 0.0 | 1.7 | 0.00 | 0.00 | 0.00 | 70 | 1017.2 |
| 20260831054010 | 61 | 42 | 0.0 | 1.7 | 0.00 | 0.00 | 0.00 | 69 | 1017.3 |
| 20260831053515 | 61 | 22 | 0.9 | 1.7 | 0.00 | 0.00 | 0.00 | 69 | 1017.5 |
| 20260831053027 | 61 | 79 | 0.0 | 2.6 | 0.00 | 0.00 | 0.00 | 68 | 1017.5 |
| 20260831052515 | 61 | 61 | 0.9 | 2.6 | 0.00 | 0.00 | 0.00 | 68 | 1017.6 |
| 20260831052016 | 61 | 348 | 0.9 | 2.6 | 0.00 | 0.00 | 0.00 | 67 | 1017.6 |
| 20260831051545 | 61 | 15 | 0.0 | 4.3 | 0.00 | 0.00 | 0.00 | 67 | 1017.6 |
| 20260831051014 | 62 | 40 | 0.9 | 4.3 | 0.00 | 0.00 | 0.00 | 67 | 1017.6 |
| 20260831050503 | 62 | 53 | 1.7 | 3.5 | 0.00 | 0.00 | 0.00 | 66 | 1017.7 |
| 20260831050008 | 62 | 11 | 0.0 | 4.3 | 0.00 | 0.00 | 0.00 | 66 | 1017.7 |
| 20260831045507 | 62 | 352 | 1.7 | 4.3 | 0.00 | 0.00 | 0.00 | 66 | 1017.7 |
| 20260831045006 | 62 | 360 | 1.7 | 2.6 | 0.00 | 0.00 | 0.00 | 66 | 1017.8 |
| 20260831044515 | 62 | 16 | 0.0 | 1.7 | 0.00 | 0.00 | 0.00 | 66 | 1017.8 |
| 20260831044009 | 62 | 42 | 0.0 | 2.6 | 0.00 | 0.00 | 0.00 | 66 | 1017.8 |
| 20260831043510 | 62 | 42 | 0.0 | 2.6 | 0.00 | 0.00 | 0.00 | 66 | 1017.9 |
| 20260831043024 | 62 | 49 | 0.0 | 0.0 | 0.00 | 0.00 | 0.00 | 65 | 1017.8 |
| 20260831042512 | 62 | 49 | 0.0 | 1.7 | 0.00 | 0.00 | 0.00 | 65 | 1017.9 |
| 20260831042012 | 62 | 49 | 0.0 | 1.7 | 0.00 | 0.00 | 0.00 | 64 | 1017.9 |
| 20260831041533 | 62 | 33 | 0.0 | 1.7 | 0.00 | 0.00 | 0.00 | 64 | 1017.9 |
| 20260831041014 | 63 | 352 | 0.9 | 1.7 | 0.00 | 0.00 | 0.00 | 63 | 1017.8 |
| 20260831040516 | 63 | 342 | 0.9 | 1.7 | 0.00 | 0.00 | 0.00 | 62 | 1017.8 |
| 20260831040042 | 63 | 5 | 0.9 | 1.7 | 0.00 | 0.00 | 0.00 | 62 | 1017.8 |
| 20260831035514 | 63 | 5 | 0.0 | 1.7 | 0.00 | 0.00 | 0.00 | 62 | 1017.8 |
| 20260831035008 | 63 | 5 | 0.9 | 2.6 | 0.00 | 0.00 | 0.00 | 61 | 1017.8 |
| 20260831034513 | 64 | 350 | 0.9 | 2.6 | 0.00 | 0.00 | 0.00 | 61 | 1017.8 |
| 20260831034008 | 64 | 24 | 0.0 | 2.6 | 0.00 | 0.00 | 0.00 | 60 | 1017.8 |
| 20260831033509 | 64 | 352 | 0.9 | 2.6 | 0.00 | 0.00 | 0.00 | 60 | 1017.8 |
| 20260831033016 | 64 | 23 | 0.9 | 2.6 | 0.00 | 0.00 | 0.00 | 61 | 1017.8 |
| 20260831032513 | 64 | 333 | 0.0 | 0.0 | 0.00 | 0.00 | 0.00 | 61 | 1017.7 |
| 20260831032012 | 64 | 320 | 0.0 | 1.7 | 0.00 | 0.00 | 0.00 | 60 | 1017.7 |
| 20260831031525 | 64 | 9 | 0.0 | 1.7 | 0.00 | 0.00 | 0.00 | 60 | 1017.8 |
| 20260831031017 | 64 | 9 | 0.0 | 0.9 | 0.00 | 0.00 | 0.00 | 59 | 1017.7 |
| 20260831030516 | 64 | 9 | 0.0 | 1.7 | 0.00 | 0.00 | 0.00 | 59 | 1017.8 |
| 20260831030030 | 65 | 9 | 0.0 | 1.7 | 0.00 | 0.00 | 0.00 | 59 | 1017.7 |
| 20260831025515 | 65 | 352 | 0.0 | 1.7 | 0.00 | 0.00 | 0.00 | 59 | 1017.8 |
| 20260831025015 | 65 | 352 | 0.0 | 1.7 | 0.00 | 0.00 | 0.00 | 59 | 1017.8 |
| 20260831024530 | 65 | 321 | 0.0 | 0.0 | 0.00 | 0.00 | 0.00 | 58 | 1017.8 |
| 20260831024022 | 65 | 336 | 0.0 | 0.9 | 0.00 | 0.00 | 0.00 | 58 | 1017.8 |
| 20260831023508 | 65 | 300 | 0.0 | 0.9 | 0.00 | 0.00 | 0.00 | 58 | 1017.9 |
| 20260831023023 | 65 | 9 | 0.0 | 1.7 | 0.00 | 0.00 | 0.00 | 58 | 1017.9 |
| 20260831022515 | 66 | 9 | 0.0 | 1.7 | 0.00 | 0.00 | 0.00 | 57 | 1017.8 |
| 20260831022011 | 66 | 22 | 0.0 | 1.7 | 0.00 | 0.00 | 0.00 | 56 | 1017.8 |
| 20260831021544 | 66 | 352 | 0.0 | 1.7 | 0.00 | 0.00 | 0.00 | 56 | 1018.0 |
| 20260831021013 | 66 | 301 | 0.0 | 2.6 | 0.00 | 0.00 | 0.00 | 56 | 1018.0 |
| 20260831020513 | 66 | 270 | 0.9 | 2.6 | 0.00 | 0.00 | 0.00 | 55 | 1018.0 |
| 20260831020025 | 67 | 335 | 0.9 | 3.5 | 0.00 | 0.00 | 0.00 | 54 | 1018.0 |
| 20260831015519 | 67 | 5 | 0.9 | 3.5 | 0.00 | 0.00 | 0.00 | 54 | 1018.0 |
| 20260831015017 | 67 | 311 | 1.7 | 4.3 | 0.00 | 0.00 | 0.00 | 53 | 1018.0 |
| 20260831014530 | 67 | 9 | 1.7 | 4.3 | 0.00 | 0.00 | 0.00 | 53 | 1018.1 |
| 20260831014016 | 67 | 5 | 0.9 | 2.6 | 0.00 | 0.00 | 0.00 | 51 | 1018.1 |
| 20260831013516 | 67 | 344 | 0.9 | 2.6 | 0.00 | 0.00 | 0.00 | 51 | 1018.2 |
| 20260831013030 | 68 | 319 | 0.9 | 2.6 | 0.00 | 0.00 | 0.00 | 51 | 1018.2 |
| 20260831012518 | 68 | 279 | 0.0 | 2.6 | 0.00 | 0.00 | 0.00 | 53 | 1018.2 |
| 20260831012009 | 68 | 281 | 0.9 | 2.6 | 0.00 | 0.00 | 0.00 | 52 | 1018.3 |
| 20260831011517 | 68 | 265 | 0.0 | 1.7 | 0.00 | 0.00 | 0.00 | 51 | 1018.3 |
| 20260831011012 | 68 | 259 | 0.0 | 2.6 | 0.00 | 0.00 | 0.00 | 51 | 1018.3 |
| 20260831010512 | 68 | 338 | 0.9 | 2.6 | 0.00 | 0.00 | 0.00 | 51 | 1018.3 |
| 20260831010041 | 68 | 290 | 0.0 | 2.6 | 0.00 | 0.00 | 0.00 | 50 | 1018.4 |
| 20260831005504 | 69 | 275 | 0.9 | 2.6 | 0.00 | 0.00 | 0.00 | 50 | 1018.4 |
| 20260831005004 | 69 | 306 | 0.9 | 3.5 | 0.00 | 0.00 | 0.00 | 51 | 1018.4 |
| 20260831004506 | 68 | 5 | 0.9 | 3.5 | 0.00 | 0.00 | 0.00 | 50 | 1018.4 |
| 20260831004009 | 68 | 268 | 0.9 | 5.2 | 0.00 | 0.00 | 0.00 | 49 | 1018.5 |
| 20260831003504 | 68 | 265 | 2.6 | 5.2 | 0.00 | 0.00 | 0.00 | 49 | 1018.6 |
| 20260831003009 | 69 | 310 | 1.7 | 5.2 | 0.00 | 0.00 | 0.00 | 49 | 1018.6 |
| 20260831002507 | 68 | 302 | 1.7 | 7.0 | 0.00 | 0.00 | 0.00 | 48 | 1018.6 |
| 20260831002012 | 69 | 247 | 2.6 | 7.0 | 0.00 | 0.00 | 0.00 | 49 | 1018.6 |
| 20260831001529 | 68 | 336 | 0.9 | 7.0 | 0.00 | 0.00 | 0.00 | 51 | 1018.6 |
| 20260831001009 | 68 | 317 | 1.7 | 7.0 | 0.00 | 0.00 | 0.00 | 51 | 1018.7 |
| 20260831000511 | 68 | 343 | 1.7 | 7.0 | 0.00 | 0.00 | 0.00 | 51 | 1018.7 |
| 20260831000021 | 68 | 321 | 1.7 | 7.0 | 0.00 | 0.00 | 0.00 | 51 | 1018.8 |
| 20260830235512 | 69 | 312 | 3.5 | 7.0 | 0.00 | 0.00 | 0.00 | 49 | 1018.8 |
| 20260830235003 | 69 | 292 | 1.7 | 6.1 | 0.00 | 0.00 | 0.00 | 48 | 1018.9 |
| 20260830234504 | 70 | 306 | 0.9 | 7.0 | 0.00 | 0.00 | 0.00 | 48 | 1018.9 |
| 20260830234007 | 70 | 286 | 1.7 | 7.0 | 0.00 | 0.00 | 0.00 | 48 | 1019.1 |
| 20260830233505 | 70 | 176 | 1.7 | 3.5 | 0.00 | 0.00 | 0.00 | 46 | 1019.1 |
| 20260830233007 | 70 | 328 | 0.0 | 3.5 | 0.00 | 0.00 | 0.00 | 47 | 1019.1 |
| 20260830232505 | 69 | 292 | 0.9 | 5.2 | 0.00 | 0.00 | 0.00 | 50 | 1019.1 |
| 20260830232009 | 69 | 290 | 2.6 | 5.2 | 0.00 | 0.00 | 0.00 | 49 | 1019.1 |
| 20260830231526 | 69 | 331 | 2.6 | 5.2 | 0.00 | 0.00 | 0.00 | 51 | 1019.2 |
| 20260830231008 | 69 | 290 | 1.7 | 5.2 | 0.00 | 0.00 | 0.00 | 51 | 1019.2 |
| 20260830230512 | 69 | 250 | 1.7 | 5.2 | 0.00 | 0.00 | 0.00 | 51 | 1019.2 |
| 20260830230018 | 70 | 184 | 0.9 | 6.1 | 0.00 | 0.00 | 0.00 | 53 | 1019.1 |
| 20260830225511 | 68 | 127 | 0.9 | 6.1 | 0.00 | 0.00 | 0.00 | 53 | 1019.2 |
| 20260830225013 | 68 | 294 | 1.7 | 5.2 | 0.00 | 0.00 | 0.00 | 53 | 1019.2 |
| 20260830224524 | 69 | 273 | 1.7 | 5.2 | 0.00 | 0.00 | 0.00 | 54 | 1019.3 |
| 20260830224012 | 68 | 286 | 0.9 | 5.2 | 0.00 | 0.00 | 0.00 | 55 | 1019.3 |
| 20260830223504 | 69 | 289 | 2.6 | 5.2 | 0.00 | 0.00 | 0.00 | 54 | 1019.4 |
| 20260830223012 | 70 | 284 | 1.7 | 5.2 | 0.00 | 0.00 | 0.00 | 53 | 1019.5 |
| 20260830222504 | 68 | 302 | 1.7 | 5.2 | 0.00 | 0.00 | 0.00 | 53 | 1019.5 |
| 20260830222008 | 69 | 176 | 0.9 | 3.5 | 0.00 | 0.00 | 0.00 | 55 | 1019.6 |
| 20260830221512 | 69 | 281 | 2.6 | 5.2 | 0.00 | 0.00 | 0.00 | 52 | 1019.7 |
| 20260830221010 | 69 | 208 | 1.7 | 6.1 | 0.00 | 0.00 | 0.00 | 54 | 1019.6 |
| 20260830220508 | 69 | 242 | 0.9 | 6.1 | 0.00 | 0.00 | 0.00 | 55 | 1019.6 |
| 20260830220022 | 69 | 182 | 2.6 | 6.1 | 0.00 | 0.00 | 0.00 | 53 | 1019.6 |
| 20260830215510 | 68 | 215 | 1.7 | 6.1 | 0.00 | 0.00 | 0.00 | 55 | 1019.6 |
| 20260830215013 | 69 | 134 | 2.6 | 6.1 | 0.00 | 0.00 | 0.00 | 53 | 1019.6 |
| 20260830214528 | 68 | 158 | 3.5 | 6.1 | 0.00 | 0.00 | 0.00 | 54 | 1019.6 |
| 20260830214012 | 69 | 311 | 0.9 | 5.2 | 0.00 | 0.00 | 0.00 | 53 | 1019.8 |
| 20260830213517 | 68 | 213 | 1.7 | 7.0 | 0.00 | 0.00 | 0.00 | 56 | 1019.8 |
| 20260830213028 | 67 | 151 | 2.6 | 7.0 | 0.00 | 0.00 | 0.00 | 56 | 1019.9 |
| 20260830212516 | 67 | 92 | 2.6 | 5.2 | 0.00 | 0.00 | 0.00 | 55 | 1019.9 |
| 20260830212004 | 67 | 205 | 1.7 | 5.2 | 0.00 | 0.00 | 0.00 | 57 | 1020.0 |
| 20260830211517 | 67 | 126 | 1.7 | 5.2 | 0.00 | 0.00 | 0.00 | 57 | 1020.0 |
| 20260830211008 | 68 | 184 | 1.7 | 4.3 | 0.00 | 0.00 | 0.00 | 56 | 1020.1 |
| 20260830210508 | 69 | 193 | 0.9 | 6.1 | 0.00 | 0.00 | 0.00 | 57 | 1020.1 |
| 20260830210014 | 67 | 140 | 2.6 | 6.1 | 0.00 | 0.00 | 0.00 | 60 | 1020.1 |
| 20260830205513 | 67 | 59 | 0.9 | 6.1 | 0.00 | 0.00 | 0.00 | 60 | 1020.2 |
| 20260830205008 | 66 | 155 | 2.6 | 7.0 | 0.00 | 0.00 | 0.00 | 60 | 1020.2 |
| 20260830204519 | 67 | 207 | 1.7 | 7.0 | 0.00 | 0.00 | 0.00 | 61 | 1020.2 |
| 20260830204012 | 68 | 134 | 1.7 | 4.3 | 0.00 | 0.00 | 0.00 | 60 | 1020.3 |
| 20260830203512 | 69 | 258 | 0.0 | 3.5 | 0.00 | 0.00 | 0.00 | 58 | 1020.3 |
| 20260830203024 | 67 | 198 | 1.7 | 5.2 | 0.00 | 0.00 | 0.00 | 62 | 1020.3 |
| 20260830202517 | 65 | 132 | 2.6 | 5.2 | 0.00 | 0.00 | 0.00 | 62 | 1020.3 |
| 20260830202016 | 66 | 204 | 2.6 | 5.2 | 0.00 | 0.00 | 0.00 | 61 | 1020.4 |
| 20260830201529 | 65 | 308 | 1.7 | 5.2 | 0.00 | 0.00 | 0.00 | 63 | 1020.5 |
| 20260830201018 | 66 | 159 | 0.9 | 4.3 | 0.00 | 0.00 | 0.00 | 64 | 1020.5 |
| 20260830200507 | 66 | 184 | 1.7 | 4.3 | 0.00 | 0.00 | 0.00 | 63 | 1020.5 |
| 20260830200010 | 65 | 213 | 0.9 | 6.1 | 0.00 | 0.00 | 0.00 | 65 | 1020.4 |
| 20260830195508 | 64 | 141 | 3.5 | 7.0 | 0.00 | 0.00 | 0.00 | 65 | 1020.5 |
| 20260830195012 | 65 | 205 | 3.5 | 7.0 | 0.00 | 0.00 | 0.00 | 63 | 1020.6 |
| 20260830194518 | 66 | 263 | 0.9 | 4.3 | 0.00 | 0.00 | 0.00 | 64 | 1020.6 |
| 20260830194011 | 65 | 147 | 2.6 | 4.3 | 0.00 | 0.00 | 0.00 | 64 | 1020.6 |
| 20260830193513 | 66 | 167 | 1.7 | 5.2 | 0.00 | 0.00 | 0.00 | 63 | 1020.7 |
| 20260830193024 | 65 | 254 | 2.6 | 5.2 | 0.00 | 0.00 | 0.00 | 65 | 1020.7 |
| 20260830192512 | 67 | 201 | 0.9 | 3.5 | 0.00 | 0.00 | 0.00 | 63 | 1020.7 |
| 20260830192016 | 66 | 261 | 0.9 | 3.5 | 0.00 | 0.00 | 0.00 | 62 | 1020.7 |
| 20260830191526 | 66 | 303 | 0.9 | 3.5 | 0.00 | 0.00 | 0.00 | 64 | 1020.7 |
| 20260830191018 | 67 | 215 | 0.9 | 3.5 | 0.00 | 0.00 | 0.00 | 62 | 1020.7 |
| 20260830190516 | 65 | 300 | 1.7 | 3.5 | 0.00 | 0.00 | 0.00 | 65 | 1020.7 |
| 20260830190033 | 65 | 215 | 0.0 | 5.2 | 0.00 | 0.00 | 0.00 | 65 | 1020.8 |
| 20260830185507 | 64 | 161 | 1.7 | 5.2 | 0.00 | 0.00 | 0.00 | 66 | 1020.8 |
| 20260830185008 | 64 | 240 | 1.7 | 3.5 | 0.00 | 0.00 | 0.00 | 66 | 1020.8 |
| 20260830184517 | 65 | 188 | 0.9 | 3.5 | 0.00 | 0.00 | 0.00 | 65 | 1020.9 |
| 20260830184009 | 64 | 235 | 0.9 | 6.1 | 0.00 | 0.00 | 0.00 | 67 | 1020.8 |
| 20260830183512 | 63 | 192 | 2.6 | 7.0 | 0.00 | 0.00 | 0.00 | 71 | 1020.9 |
| 20260830183020 | 62 | 164 | 4.3 | 7.0 | 0.00 | 0.00 | 0.00 | 67 | 1020.8 |
| 20260830182512 | 64 | 30 | 0.9 | 2.6 | 0.00 | 0.00 | 0.00 | 68 | 1020.8 |
| 20260830182014 | 64 | 200 | 0.9 | 2.6 | 0.00 | 0.00 | 0.00 | 67 | 1020.8 |
| 20260830181536 | 63 | 229 | 0.9 | 3.5 | 0.00 | 0.00 | 0.00 | 68 | 1020.9 |
| 20260830181015 | 64 | 175 | 0.9 | 4.3 | 0.00 | 0.00 | 0.00 | 67 | 1020.9 |
| 20260830180516 | 62 | 181 | 1.7 | 4.3 | 0.00 | 0.00 | 0.00 | 71 | 1020.9 |
| 20260830180049 | 61 | 280 | 1.7 | 4.3 | 0.00 | 0.00 | 0.00 | 71 | 1020.9 |
| 20260830175516 | 62 | 128 | 1.7 | 4.3 | 0.00 | 0.00 | 0.00 | 68 | 1020.9 |
| 20260830175017 | 62 | 148 | 1.7 | 3.5 | 0.00 | 0.00 | 0.00 | 71 | 1020.9 |
| 20260830174536 | 62 | 229 | 0.9 | 3.5 | 0.00 | 0.00 | 0.00 | 70 | 1020.9 |
| 20260830174010 | 61 | 43 | 0.9 | 2.6 | 0.00 | 0.00 | 0.00 | 72 | 1020.9 |
| 20260830173509 | 60 | 140 | 0.9 | 5.2 | 0.00 | 0.00 | 0.00 | 73 | 1021.0 |
| 20260830173025 | 59 | 153 | 2.6 | 5.2 | 0.00 | 0.00 | 0.00 | 74 | 1020.9 |
| 20260830172511 | 60 | 175 | 0.9 | 3.5 | 0.00 | 0.00 | 0.00 | 74 | 1020.9 |
| 20260830172012 | 60 | 140 | 0.9 | 2.6 | 0.00 | 0.00 | 0.00 | 73 | 1020.8 |
| 20260830171529 | 62 | 269 | 0.9 | 2.6 | 0.00 | 0.00 | 0.00 | 71 | 1020.8 |
| 20260830171018 | 61 | 130 | 0.9 | 2.6 | 0.00 | 0.00 | 0.00 | 72 | 1020.8 |
| 20260830170514 | 61 | 205 | 0.9 | 3.5 | 0.00 | 0.00 | 0.00 | 72 | 1020.8 |
| 20260830170028 | 61 | 209 | 0.9 | 3.5 | 0.00 | 0.00 | 0.00 | 72 | 1020.7 |
| 20260830165514 | 60 | 272 | 1.7 | 2.6 | 0.00 | 0.00 | 0.00 | 74 | 1020.7 |
| 20260830165015 | 60 | 117 | 0.9 | 2.6 | 0.00 | 0.00 | 0.00 | 75 | 1020.7 |
| 20260830164533 | 58 | 211 | 0.0 | 4.3 | 0.00 | 0.00 | 0.00 | 77 | 1020.8 |
| 20260830164014 | 58 | 173 | 0.9 | 4.3 | 0.00 | 0.00 | 0.00 | 78 | 1020.7 |
| 20260830163524 | 58 | 185 | 2.6 | 3.5 | 0.00 | 0.00 | 0.00 | 76 | 1020.7 |
| 20260830163030 | 58 | 238 | 0.9 | 2.6 | 0.00 | 0.00 | 0.00 | 77 | 1020.8 |
| 20260830162516 | 58 | 207 | 0.9 | 2.6 | 0.00 | 0.00 | 0.00 | 77 | 1020.8 |
| 20260830162012 | 58 | 329 | 0.0 | 4.3 | 0.00 | 0.00 | 0.00 | 77 | 1020.8 |
| 20260830161523 | 58 | 188 | 0.0 | 4.3 | 0.00 | 0.00 | 0.00 | 78 | 1020.8 |
| 20260830161014 | 58 | 197 | 1.7 | 3.5 | 0.00 | 0.00 | 0.00 | 78 | 1020.9 |
| 20260830160515 | 58 | 209 | 0.0 | 2.6 | 0.00 | 0.00 | 0.00 | 78 | 1021.0 |
| 20260830160032 | 57 | 196 | 0.9 | 2.6 | 0.00 | 0.00 | 0.00 | 79 | 1020.9 |
| 20260830155507 | 57 | 208 | 0.9 | 2.6 | 0.00 | 0.00 | 0.00 | 79 | 1020.8 |
| 20260830155003 | 57 | 196 | 0.0 | 2.6 | 0.00 | 0.00 | 0.00 | 78 | 1020.8 |
| 20260830154511 | 57 | 211 | 0.9 | 4.3 | 0.00 | 0.00 | 0.00 | 78 | 1020.8 |
| 20260830154006 | 57 | 181 | 1.7 | 4.3 | 0.00 | 0.00 | 0.00 | 78 | 1020.8 |
| 20260830153509 | 57 | 148 | 1.7 | 4.3 | 0.00 | 0.00 | 0.00 | 78 | 1020.8 |
| 20260830153016 | 57 | 157 | 0.9 | 3.5 | 0.00 | 0.00 | 0.00 | 79 | 1020.7 |
| 20260830152513 | 57 | 169 | 0.0 | 2.6 | 0.00 | 0.00 | 0.00 | 79 | 1020.7 |
| 20260830152011 | 57 | 155 | 0.9 | 2.6 | 0.00 | 0.00 | 0.00 | 79 | 1020.7 |
| 20260830151521 | 56 | 119 | 0.0 | 2.6 | 0.00 | 0.00 | 0.00 | 79 | 1020.6 |
| 20260830151011 | 56 | 144 | 0.9 | 4.3 | 0.00 | 0.00 | 0.00 | 79 | 1020.7 |
| 20260830150513 | 56 | 210 | 1.7 | 4.3 | 0.00 | 0.00 | 0.00 | 79 | 1020.7 |
| 20260830150025 | 56 | 113 | 0.0 | 3.5 | 0.00 | 0.00 | 0.00 | 80 | 1020.7 |
| 20260830145516 | 56 | 113 | 0.9 | 3.5 | 0.00 | 0.00 | 0.00 | 80 | 1020.7 |
| 20260830145004 | 56 | 148 | 0.9 | 3.5 | 0.00 | 0.00 | 0.00 | 80 | 1020.7 |
| 20260830144510 | 56 | 181 | 0.0 | 4.3 | 0.00 | 0.00 | 0.00 | 80 | 1020.7 |
| 20260830144004 | 56 | 154 | 0.9 | 4.3 | 0.00 | 0.00 | 0.00 | 80 | 1020.7 |
| 20260830143508 | 55 | 171 | 0.0 | 0.0 | 0.00 | 0.00 | 0.00 | 81 | 1020.7 |
| 20260830143012 | 55 | 160 | 0.0 | 0.0 | 0.00 | 0.00 | 0.00 | 82 | 1020.6 |
| 20260830142507 | 55 | 180 | 0.0 | 1.7 | 0.00 | 0.00 | 0.00 | 81 | 1020.6 |
| 20260830142010 | 55 | 161 | 0.0 | 1.7 | 0.00 | 0.03 | 0.00 | 81 | 1020.5 |
| 20260830141518 | 55 | 146 | 0.0 | 1.7 | 0.00 | 0.07 | 0.00 | 82 | 1020.4 |
| 20260830141012 | 54 | 146 | 0.0 | 1.7 | 0.00 | 0.14 | 0.00 | 83 | 1020.4 |
| 20260830140512 | 54 | 187 | 0.0 | 0.0 | 0.00 | 0.21 | 0.00 | 83 | 1020.4 |
| 20260830140026 | 54 | 217 | 0.0 | 0.0 | 0.00 | 0.30 | 0.00 | 83 | 1020.3 |
| 20260830135512 | 54 | 210 | 0.0 | 0.0 | 0.00 | 0.31 | 0.00 | 84 | 1020.3 |
| 20260830135014 | 54 | 210 | 0.0 | 0.0 | 0.00 | 0.32 | 0.00 | 84 | 1020.3 |
| 20260830134539 | 54 | 210 | 0.0 | 0.0 | 0.00 | 0.34 | 0.00 | 84 | 1020.3 |
| 20260830134014 | 54 | 210 | 0.0 | 0.0 | 0.00 | 0.38 | 0.00 | 84 | 1020.3 |
| 20260830133504 | 54 | 216 | 0.0 | 0.0 | 0.00 | 0.45 | 0.00 | 84 | 1020.3 |
| 20260830133010 | 54 | 165 | 0.0 | 0.0 | 0.00 | 0.54 | 0.00 | 84 | 1020.3 |
| 20260830132507 | 54 | 165 | 0.0 | 0.0 | 0.00 | 0.55 | 0.00 | 83 | 1020.3 |
| 20260830132013 | 54 | 150 | 0.0 | 0.0 | 0.00 | 0.56 | 0.00 | 83 | 1020.3 |
| 20260830131518 | 54 | 150 | 0.0 | 0.0 | 0.00 | 0.61 | 0.00 | 83 | 1020.3 |
| 20260830131011 | 54 | 150 | 0.0 | 0.0 | 0.00 | 0.62 | 0.00 | 83 | 1020.3 |
| 20260830130514 | 54 | 145 | 0.0 | 0.0 | 0.00 | 0.62 | 0.00 | 83 | 1020.3 |
| 20260830130021 | 54 | 136 | 0.0 | 0.0 | 0.00 | 0.63 | 0.00 | 83 | 1020.3 |
| 20260830125512 | 55 | 109 | 0.0 | 0.0 | 0.00 | 0.63 | 0.00 | 83 | 1020.2 |
| 20260830125013 | 55 | 117 | 0.0 | 0.0 | 0.00 | 0.63 | 0.00 | 84 | 1020.2 |
| 20260830124527 | 55 | 117 | 0.0 | 0.0 | 0.00 | 0.63 | 0.00 | 84 | 1020.2 |
| 20260830124015 | 55 | 117 | 0.0 | 0.0 | 0.00 | 0.63 | 0.00 | 83 | 1020.3 |
| 20260830123515 | 55 | 105 | 0.0 | 0.0 | 0.00 | 0.63 | 0.00 | 83 | 1020.2 |
| 20260830123031 | 55 | 105 | 0.0 | 0.0 | 0.00 | 0.63 | 0.00 | 83 | 1020.3 |
| 20260830122515 | 55 | 118 | 0.0 | 0.0 | 0.00 | 0.63 | 0.00 | 83 | 1020.3 |
| 20260830122009 | 55 | 156 | 0.0 | 0.0 | 0.00 | 0.63 | 0.00 | 83 | 1020.2 |
| 20260830121511 | 55 | 174 | 0.0 | 0.0 | 0.00 | 0.63 | 0.00 | 83 | 1020.3 |
| 20260830121008 | 55 | 174 | 0.0 | 0.0 | 0.00 | 0.63 | 0.00 | 83 | 1020.4 |
| 20260830120510 | 55 | 174 | 0.0 | 0.0 | 0.00 | 0.63 | 0.00 | 83 | 1020.4 |
| 20260830120017 | 55 | 174 | 0.0 | 0.0 | 0.00 | 0.63 | 0.00 | 83 | 1020.4 |
| 20260830115512 | 55 | 126 | 0.0 | 0.0 | 0.00 | 0.63 | 0.00 | 83 | 1020.4 |
| 20260830115014 | 55 | 126 | 0.0 | 0.0 | 0.00 | 0.63 | 0.00 | 83 | 1020.4 |
| 20260830114524 | 55 | 126 | 0.0 | 0.0 | 0.00 | 0.63 | 0.00 | 83 | 1020.4 |
| 20260830114016 | 55 | 126 | 0.0 | 0.0 | 0.00 | 0.63 | 0.00 | 83 | 1020.3 |
| 20260830113515 | 55 | 126 | 0.0 | 0.0 | 0.00 | 0.63 | 0.00 | 83 | 1020.3 |
| 20260830113030 | 55 | 125 | 0.0 | 0.0 | 0.00 | 0.63 | 0.00 | 83 | 1020.2 |
| 20260830112514 | 55 | 125 | 0.0 | 0.0 | 0.00 | 0.63 | 0.00 | 83 | 1020.2 |
| 20260830112016 | 55 | 125 | 0.0 | 0.0 | 0.00 | 0.63 | 0.00 | 83 | 1020.1 |
| 20260830111532 | 55 | 125 | 0.0 | 0.0 | 0.00 | 0.63 | 0.00 | 83 | 1020.1 |
| 20260830111016 | 55 | 160 | 0.0 | 0.0 | 0.00 | 0.63 | 0.00 | 83 | 1020.0 |
| 20260830110508 | 55 | 194 | 0.0 | 0.0 | 0.00 | 0.63 | 0.00 | 83 | 1020.1 |